Powrót do katalogu

STARLINK-35735

AktywnyŁącznośćVLEO
NORAD 66231·PAYLOAD·🇺🇸 United States

Wystrzelony Oct 28, 2025 z Vandenberg Space Force Base

Loading…

Następne Przeloty (najbliższe 24 godziny)

TLE

ŚwieżeSource: CelesTrak SupGP

Epoka: Sep 15, 2026, 03:20 UTC

1 66231C 25244AB  26258.13937500 -.00023957  00000+0 -70796-3 0  2583
2 66231  53.1580  66.9511 0001217  90.5816  36.1993 15.34395622    12

Śledź STARLINK-35735 w czasie rzeczywistym z AllMySat

Download on the App Store